{"data":{"norad_id":45153,"epoch":"2026-09-20T03:11:06.664128Z","epoch_age_seconds":46075,"freshness":"FRESH","line1":"1 45153U 20008Y   26263.13271602 -.00000235  00000+0 -70866-3 0  9990","line2":"2 45153  87.8904  17.3830 0001825  96.4466 263.6869 13.10375743320244","mean_motion":13.10375743,"eccentricity":0.0001825,"inclination_deg":87.8904,"raan_deg":17.383,"arg_perigee_deg":96.4466,"mean_anomaly_deg":263.6869,"bstar":-0.00070866,"rev_number":32024,"period_min":109.89214411915,"perigee_km":1220.3188660727,"apogee_km":1223.0928087084,"semimajor_km":7599.8428373906,"source":"CELESTRAK","updated_at":"2026-09-20T09:00:44.549250Z"}}